owner,sensor,date,latitude,longitude,vertical_datum,mass_concentration_of_oxygen_in_sea_water,qcFlag 
DISL,ioos:station:DISL:BSCA:1,2012-01-01T06:30:00Z,30.3288,-87.8293,1.847,10.39,1111122 
DISL,ioos:station:DISL:BSCA:1,2012-01-01T07:00:00Z,30.3288,-87.8293,1.829,10.27,1111122 
DISL,ioos:station:DISL:BSCA:1,2012-01-01T07:30:00Z,30.3288,-87.8293,1.806,10.02,1111122 
DISL,ioos:station:DISL:BSCA:1,2012-01-01T08:00:00Z,30.3288,-87.8293,1.797,9.9,1111122 
DISL,ioos:station:DISL:BSCA:1,2012-01-01T08:30:00Z,30.3288,-87.8293,1.792,9.95,1111122 
DISL,ioos:station:DISL:BSCA:1,2012-01-01T09:00:00Z,30.3288,-87.8293,1.785,9.98,1111122 
DISL,ioos:station:DISL:BSCA:1,2012-01-01T09:30:00Z,30.3288,-87.8293,1.783,10.1,1111122 
DISL,ioos:station:DISL:BSCA:1,2012-01-01T10:00:00Z,30.3288,-87.8293,1.768,10.15,1111122 
DISL,ioos:station:DISL:BSCA:1,2012-01-01T10:30:00Z,30.3288,-87.8293,1.764,10.15,1111122 
DISL,ioos:station:DISL:BSCA:1,2012-01-01T11:00:00Z,30.3288,-87.8293,1.747,10.0,1111122 
DISL,ioos:station:DISL:BSCA:1,2012-01-01T11:30:00Z,30.3288,-87.8293,1.756,10.38,1111122 
DISL,ioos:station:DISL:BSCA:1,2012-01-01T12:00:00Z,30.3288,-87.8293,1.747,9.93,1111122 
DISL,ioos:station:DISL:BSCA:1,2012-01-01T12:30:00Z,30.3288,-87.8293,1.756,9.86,1111122 
DISL,ioos:station:DISL:BSCA:1,2012-01-01T13:00:00Z,30.3288,-87.8293,1.756,9.63,1111122 
DISL,ioos:station:DISL:BSCA:1,2012-01-01T13:30:00Z,30.3288,-87.8293,1.761,10.28,1111122 
DISL,ioos:station:DISL:BSCA:1,2012-01-01T14:00:00Z,30.3288,-87.8293,1.758,9.73,1111122 
DISL,ioos:station:DISL:BSCA:1,2012-01-01T14:30:00Z,30.3288,-87.8293,1.757,10.02,1111122 
DISL,ioos:station:DISL:BSCA:1,2012-01-01T15:00:00Z,30.3288,-87.8293,1.767,10.14,1111122 
DISL,ioos:station:DISL:BSCA:1,2012-01-01T15:30:00Z,30.3288,-87.8293,1.773,9.84,1111122 
DISL,ioos:station:DISL:BSCA:1,2012-01-01T16:00:00Z,30.3288,-87.8293,1.776,10.25,1111122 
DISL,ioos:station:DISL:BSCA:1,2012-01-01T16:30:00Z,30.3288,-87.8293,1.796,10.6,1111122 
DISL,ioos:station:DISL:BSCA:1,2012-01-01T17:00:00Z,30.3288,-87.8293,1.805,10.66,1111122 
DISL,ioos:station:DISL:BSCA:1,2012-01-01T17:30:00Z,30.3288,-87.8293,1.829,10.59,1111122 
DISL,ioos:station:DISL:BSCA:1,2012-01-01T18:00:00Z,30.3288,-87.8293,1.833,10.58,1111122 
DISL,ioos:station:DISL:BSCA:1,2012-01-01T18:30:00Z,30.3288,-87.8293,1.864,10.64,1111122 
DISL,ioos:station:DISL:BSCA:1,2012-01-01T19:00:00Z,30.3288,-87.8293,1.882,9.64,1111122 
DISL,ioos:station:DISL:BSCA:1,2012-01-01T19:30:00Z,30.3288,-87.8293,1.902,10.56,1111122 
DISL,ioos:station:DISL:BSCA:1,2012-01-01T20:00:00Z,30.3288,-87.8293,1.932,10.84,1111122 
DISL,ioos:station:DISL:BSCA:1,2012-01-01T20:30:00Z,30.3288,-87.8293,1.931,10.7,1111122 
DISL,ioos:station:DISL:BSCA:1,2012-01-01T21:00:00Z,30.3288,-87.8293,1.939,10.61,1111122 
DISL,ioos:station:DISL:BSCA:1,2012-01-01T21:30:00Z,30.3288,-87.8293,1.928,10.88,1111122 
DISL,ioos:station:DISL:BSCA:1,2012-01-01T22:00:00Z,30.3288,-87.8293,1.913,10.69,1111122 
DISL,ioos:station:DISL:BSCA:1,2012-01-01T22:30:00Z,30.3288,-87.8293,1.916,10.95,1111122 
DISL,ioos:station:DISL:BSCA:1,2012-01-01T23:00:00Z,30.3288,-87.8293,1.918,10.72,1111122 
DISL,ioos:station:DISL:BSCA:1,2012-01-01T23:30:00Z,30.3288,-87.8293,1.934,10.58,1111122 
DISL,ioos:station:DISL:BSCA:1,2012-01-02T00:00:00Z,30.3288,-87.8293,1.957,10.65,1111122 
DISL,ioos:station:DISL:BSCA:1,2012-01-02T00:30:00Z,30.3288,-87.8293,1.938,10.55,1111122 
DISL,ioos:station:DISL:BSCA:1,2012-01-02T01:00:00Z,30.3288,-87.8293,1.962,9.35,1111122 
DISL,ioos:station:DISL:BSCA:1,2012-01-02T01:30:00Z,30.3288,-87.8293,1.966,9.06,1111122 
DISL,ioos:station:DISL:BSCA:1,2012-01-02T02:00:00Z,30.3288,-87.8293,1.884,9.18,1111122 
DISL,ioos:station:DISL:BSCA:1,2012-01-02T02:30:00Z,30.3288,-87.8293,1.827,9.84,1111122 
DISL,ioos:station:DISL:BSCA:1,2012-01-02T03:00:00Z,30.3288,-87.8293,1.788,9.92,1111122 
DISL,ioos:station:DISL:BSCA:1,2012-01-02T03:30:00Z,30.3288,-87.8293,1.761,9.71,1111122 
DISL,ioos:station:DISL:BSCA:1,2012-01-02T04:00:00Z,30.3288,-87.8293,1.643,9.78,1111122 
DISL,ioos:station:DISL:BSCA:1,2012-01-02T04:30:00Z,30.3288,-87.8293,1.732,9.71,1111122 
DISL,ioos:station:DISL:BSCA:1,2012-01-02T05:00:00Z,30.3288,-87.8293,1.702,9.9,1111122 
DISL,ioos:station:DISL:BSCA:1,2012-01-02T05:30:00Z,30.3288,-87.8293,1.686,10.01,1111122 
DISL,ioos:station:DISL:BSCA:1,2012-01-02T06:00:00Z,30.3288,-87.8293,1.636,9.95,1111122 
DISL,ioos:station:DISL:BSCA:1,2012-01-02T06:30:00Z,30.3288,-87.8293,1.606,9.8,1111122 
DISL,ioos:station:DISL:BSCA:1,2012-01-02T07:00:00Z,30.3288,-87.8293,1.559,9.71,1111122 
DISL,ioos:station:DISL:BSCA:1,2012-01-02T07:30:00Z,30.3288,-87.8293,1.53,9.52,1111122 
DISL,ioos:station:DISL:BSCA:1,2012-01-02T08:00:00Z,30.3288,-87.8293,1.502,9.61,1111122 
DISL,ioos:station:DISL:BSCA:1,2012-01-02T08:30:00Z,30.3288,-87.8293,1.461,9.58,1111122 
DISL,ioos:station:DISL:BSCA:1,2012-01-02T09:00:00Z,30.3288,-87.8293,1.424,9.6,1111122 
DISL,ioos:station:DISL:BSCA:1,2012-01-02T09:30:00Z,30.3288,-87.8293,1.43,9.67,1111122 
DISL,ioos:station:DISL:BSCA:1,2012-01-02T10:00:00Z,30.3288,-87.8293,1.43,9.63,1111122 
DISL,ioos:station:DISL:BSCA:1,2012-01-02T10:30:00Z,30.3288,-87.8293,1.416,9.6,1111122 
DISL,ioos:station:DISL:BSCA:1,2012-01-02T11:00:00Z,30.3288,-87.8293,1.436,9.55,1111122 
DISL,ioos:station:DISL:BSCA:1,2012-01-02T11:30:00Z,30.3288,-87.8293,1.451,9.6,1111122 
DISL,ioos:station:DISL:BSCA:1,2012-01-02T12:00:00Z,30.3288,-87.8293,1.439,9.65,1111122 
DISL,ioos:station:DISL:BSCA:1,2012-01-02T12:30:00Z,30.3288,-87.8293,1.479,9.6,1111122 
DISL,ioos:station:DISL:BSCA:1,2012-01-02T13:00:00Z,30.3288,-87.8293,1.508,9.52,1111122 
DISL,ioos:station:DISL:BSCA:1,2012-01-02T13:30:00Z,30.3288,-87.8293,1.509,9.47,1111122 
DISL,ioos:station:DISL:BSCA:1,2012-01-02T14:00:00Z,30.3288,-87.8293,1.512,9.43,1111122 
DISL,ioos:station:DISL:BSCA:1,2012-01-02T14:30:00Z,30.3288,-87.8293,1.485,9.46,1111122 
DISL,ioos:station:DISL:BSCA:1,2012-01-02T15:00:00Z,30.3288,-87.8293,1.473,9.51,1111122 
DISL,ioos:station:DISL:BSCA:1,2012-01-02T15:30:00Z,30.3288,-87.8293,1.479,9.53,1111122 
DISL,ioos:station:DISL:BSCA:1,2012-01-02T16:00:00Z,30.3288,-87.8293,1.502,9.54,1111122 
DISL,ioos:station:DISL:BSCA:1,2012-01-02T16:30:00Z,30.3288,-87.8293,1.508,9.52,1111122 
DISL,ioos:station:DISL:BSCA:1,2012-01-02T17:00:00Z,30.3288,-87.8293,1.608,9.55,1111122 
DISL,ioos:station:DISL:BSCA:1,2012-01-02T17:30:00Z,30.3288,-87.8293,1.652,9.52,1111122 
DISL,ioos:station:DISL:BSCA:1,2012-01-02T18:00:00Z,30.3288,-87.8293,1.713,9.51,1111122 
DISL,ioos:station:DISL:BSCA:1,2012-01-02T18:30:00Z,30.3288,-87.8293,1.719,9.56,1111122 
DISL,ioos:station:DISL:BSCA:1,2012-01-02T19:00:00Z,30.3288,-87.8293,1.698,9.62,1111122 
DISL,ioos:station:DISL:BSCA:1,2012-01-02T19:30:00Z,30.3288,-87.8293,1.699,9.65,1111122 
DISL,ioos:station:DISL:BSCA:1,2012-01-02T20:00:00Z,30.3288,-87.8293,1.697,9.64,1111122 
DISL,ioos:station:DISL:BSCA:1,2012-01-02T20:30:00Z,30.3288,-87.8293,1.717,9.66,1111122 
DISL,ioos:station:DISL:BSCA:1,2012-01-02T21:00:00Z,30.3288,-87.8293,1.739,9.61,1111122 
DISL,ioos:station:DISL:BSCA:1,2012-01-02T21:30:00Z,30.3288,-87.8293,1.771,9.57,1111122 
DISL,ioos:station:DISL:BSCA:1,2012-01-02T22:00:00Z,30.3288,-87.8293,1.81,9.56,1111122 
DISL,ioos:station:DISL:BSCA:1,2012-01-02T22:30:00Z,30.3288,-87.8293,1.821,9.61,1111122 
DISL,ioos:station:DISL:BSCA:1,2012-01-02T23:00:00Z,30.3288,-87.8293,1.871,9.53,1111122 
DISL,ioos:station:DISL:BSCA:1,2012-01-02T23:30:00Z,30.3288,-87.8293,1.856,9.58,1111122 
DISL,ioos:station:DISL:BSCA:1,2012-01-03T00:00:00Z,30.3288,-87.8293,1.87,9.55,1111122 
DISL,ioos:station:DISL:BSCA:1,2012-01-03T00:30:00Z,30.3288,-87.8293,1.988,9.58,1111122 
DISL,ioos:station:DISL:BSCA:1,2012-01-03T01:00:00Z,30.3288,-87.8293,1.896,9.57,1111122 
DISL,ioos:station:DISL:BSCA:1,2012-01-03T01:30:00Z,30.3288,-87.8293,1.953,9.61,1111122 
DISL,ioos:station:DISL:BSCA:1,2012-01-03T02:00:00Z,30.3288,-87.8293,2.078,9.59,1111122 
DISL,ioos:station:DISL:BSCA:1,2012-01-03T02:30:00Z,30.3288,-87.8293,2.11,9.59,1111122 
DISL,ioos:station:DISL:BSCA:1,2012-01-03T03:00:00Z,30.3288,-87.8293,1.954,9.57,1111122 
DISL,ioos:station:DISL:BSCA:1,2012-01-03T03:30:00Z,30.3288,-87.8293,1.894,9.52,1111122 
DISL,ioos:station:DISL:BSCA:1,2012-01-03T04:00:00Z,30.3288,-87.8293,1.887,9.56,1111122 
DISL,ioos:station:DISL:BSCA:1,2012-01-03T04:30:00Z,30.3288,-87.8293,1.861,9.52,1111122 
DISL,ioos:station:DISL:BSCA:1,2012-01-03T05:00:00Z,30.3288,-87.8293,1.82,9.54,1111122 
DISL,ioos:station:DISL:BSCA:1,2012-01-03T05:30:00Z,30.3288,-87.8293,1.662,9.58,1111122 
DISL,ioos:station:DISL:BSCA:1,2012-01-03T06:00:00Z,30.3288,-87.8293,1.629,9.58,1111122 
DISL,ioos:station:DISL:BSCA:1,2012-01-03T06:30:00Z,30.3288,-87.8293,1.522,9.63,1111122 
DISL,ioos:station:DISL:BSCA:1,2012-01-03T07:00:00Z,30.3288,-87.8293,1.542,9.61,1111122 
DISL,ioos:station:DISL:BSCA:1,2012-01-03T07:30:00Z,30.3288,-87.8293,1.503,9.59,1111122 
DISL,ioos:station:DISL:BSCA:1,2012-01-03T08:00:00Z,30.3288,-87.8293,1.483,9.77,1111122 
DISL,ioos:station:DISL:BSCA:1,2012-01-03T08:30:00Z,30.3288,-87.8293,1.443,9.63,1111122 
DISL,ioos:station:DISL:BSCA:1,2012-01-03T09:00:00Z,30.3288,-87.8293,1.439,9.63,1111122 
DISL,ioos:station:DISL:BSCA:1,2012-01-03T09:30:00Z,30.3288,-87.8293,1.404,9.61,1111122 
DISL,ioos:station:DISL:BSCA:1,2012-01-03T10:00:00Z,30.3288,-87.8293,1.398,9.58,1111122 
DISL,ioos:station:DISL:BSCA:1,2012-01-03T10:30:00Z,30.3288,-87.8293,1.376,9.6,1111122 
DISL,ioos:station:DISL:BSCA:1,2012-01-03T11:00:00Z,30.3288,-87.8293,1.348,9.55,1111122 
DISL,ioos:station:DISL:BSCA:1,2012-01-03T11:30:00Z,30.3288,-87.8293,1.333,9.49,1111122 
DISL,ioos:station:DISL:BSCA:1,2012-01-03T12:00:00Z,30.3288,-87.8293,1.32,9.48,1111122 
DISL,ioos:station:DISL:BSCA:1,2012-01-03T12:30:00Z,30.3288,-87.8293,1.283,9.46,1111122 
DISL,ioos:station:DISL:BSCA:1,2012-01-03T13:00:00Z,30.3288,-87.8293,1.233,9.48,1111122 
DISL,ioos:station:DISL:BSCA:1,2012-01-03T13:30:00Z,30.3288,-87.8293,1.26,9.49,1111122 
DISL,ioos:station:DISL:BSCA:1,2012-01-03T14:00:00Z,30.3288,-87.8293,1.268,9.55,1111122 
DISL,ioos:station:DISL:BSCA:1,2012-01-03T14:30:00Z,30.3288,-87.8293,1.273,9.59,1111122 
DISL,ioos:station:DISL:BSCA:1,2012-01-03T15:00:00Z,30.3288,-87.8293,1.306,9.64,1111122 
DISL,ioos:station:DISL:BSCA:1,2012-01-03T15:30:00Z,30.3288,-87.8293,1.326,9.67,1111122 
DISL,ioos:station:DISL:BSCA:1,2012-01-03T16:00:00Z,30.3288,-87.8293,1.349,9.73,1111122 
DISL,ioos:station:DISL:BSCA:1,2012-01-03T16:30:00Z,30.3288,-87.8293,1.355,9.74,1111122 
DISL,ioos:station:DISL:BSCA:1,2012-01-03T17:00:00Z,30.3288,-87.8293,1.367,9.81,1111122 
DISL,ioos:station:DISL:BSCA:1,2012-01-03T17:30:00Z,30.3288,-87.8293,1.387,9.84,1111122 
DISL,ioos:station:DISL:BSCA:1,2012-01-03T18:00:00Z,30.3288,-87.8293,1.404,9.88,1111122 
DISL,ioos:station:DISL:BSCA:1,2012-01-03T18:30:00Z,30.3288,-87.8293,1.434,9.93,1111122 
DISL,ioos:station:DISL:BSCA:1,2012-01-03T19:00:00Z,30.3288,-87.8293,1.51,9.91,1111122 
DISL,ioos:station:DISL:BSCA:1,2012-01-03T19:30:00Z,30.3288,-87.8293,1.521,9.96,1111122 
DISL,ioos:station:DISL:BSCA:1,2012-01-03T20:00:00Z,30.3288,-87.8293,1.564,9.96,1111122 
DISL,ioos:station:DISL:BSCA:1,2012-01-03T20:30:00Z,30.3288,-87.8293,1.597,9.96,1111122 
DISL,ioos:station:DISL:BSCA:1,2012-01-03T21:00:00Z,30.3288,-87.8293,1.611,9.98,1111122 
DISL,ioos:station:DISL:BSCA:1,2012-01-03T21:30:00Z,30.3288,-87.8293,1.638,10.08,1111122 
DISL,ioos:station:DISL:BSCA:1,2012-01-03T22:00:00Z,30.3288,-87.8293,1.645,10.02,1111122 
DISL,ioos:station:DISL:BSCA:1,2012-01-03T22:30:00Z,30.3288,-87.8293,1.645,10.04,1111122 
DISL,ioos:station:DISL:BSCA:1,2012-01-03T23:00:00Z,30.3288,-87.8293,1.659,10.05,1111122 
DISL,ioos:station:DISL:BSCA:1,2012-01-03T23:30:00Z,30.3288,-87.8293,1.662,10.05,1111122 
DISL,ioos:station:DISL:BSCA:1,2012-01-04T00:00:00Z,30.3288,-87.8293,1.676,10.02,1111122 
DISL,ioos:station:DISL:BSCA:1,2012-01-04T00:30:00Z,30.3288,-87.8293,1.683,10.03,1111122 
DISL,ioos:station:DISL:BSCA:1,2012-01-04T01:00:00Z,30.3288,-87.8293,1.683,10.02,1111122 
DISL,ioos:station:DISL:BSCA:1,2012-01-04T01:30:00Z,30.3288,-87.8293,1.695,10.08,1111122 
DISL,ioos:station:DISL:BSCA:1,2012-01-04T02:00:00Z,30.3288,-87.8293,1.69,10.06,1111122 
DISL,ioos:station:DISL:BSCA:1,2012-01-04T02:30:00Z,30.3288,-87.8293,1.68,10.06,1111122 
DISL,ioos:station:DISL:BSCA:1,2012-01-04T03:00:00Z,30.3288,-87.8293,1.666,10.02,1111122 
DISL,ioos:station:DISL:BSCA:1,2012-01-04T03:30:00Z,30.3288,-87.8293,1.651,9.95,1111122 
DISL,ioos:station:DISL:BSCA:1,2012-01-04T04:00:00Z,30.3288,-87.8293,1.632,9.87,1111122 
DISL,ioos:station:DISL:BSCA:1,2012-01-04T04:30:00Z,30.3288,-87.8293,1.616,9.84,1111122 
DISL,ioos:station:DISL:BSCA:1,2012-01-04T05:00:00Z,30.3288,-87.8293,1.588,9.85,1111122 
DISL,ioos:station:DISL:BSCA:1,2012-01-04T05:30:00Z,30.3288,-87.8293,1.554,9.74,1111122 
DISL,ioos:station:DISL:BSCA:1,2012-01-04T06:00:00Z,30.3288,-87.8293,1.533,9.73,1111122 
DISL,ioos:station:DISL:BSCA:1,2012-01-04T06:30:00Z,30.3288,-87.8293,1.5,9.69,1111122 
DISL,ioos:station:DISL:BSCA:1,2012-01-04T07:00:00Z,30.3288,-87.8293,1.481,9.51,1111122 
DISL,ioos:station:DISL:BSCA:1,2012-01-04T07:30:00Z,30.3288,-87.8293,1.46,9.39,1111122 
DISL,ioos:station:DISL:BSCA:1,2012-01-04T08:00:00Z,30.3288,-87.8293,1.428,9.43,1111122 
DISL,ioos:station:DISL:BSCA:1,2012-01-04T08:30:00Z,30.3288,-87.8293,1.408,9.53,1111122 
DISL,ioos:station:DISL:BSCA:1,2012-01-04T09:00:00Z,30.3288,-87.8293,1.383,9.59,1111122 
DISL,ioos:station:DISL:BSCA:1,2012-01-04T09:30:00Z,30.3288,-87.8293,1.363,9.53,1111122 
DISL,ioos:station:DISL:BSCA:1,2012-01-04T10:00:00Z,30.3288,-87.8293,1.347,9.52,1111122 
DISL,ioos:station:DISL:BSCA:1,2012-01-04T10:30:00Z,30.3288,-87.8293,1.333,9.55,1111122 
DISL,ioos:station:DISL:BSCA:1,2012-01-04T11:00:00Z,30.3288,-87.8293,1.32,9.67,1111122 
DISL,ioos:station:DISL:BSCA:1,2012-01-04T11:30:00Z,30.3288,-87.8293,1.313,9.73,1111122 
DISL,ioos:station:DISL:BSCA:1,2012-01-04T12:00:00Z,30.3288,-87.8293,1.304,9.67,1111122 
DISL,ioos:station:DISL:BSCA:1,2012-01-04T12:30:00Z,30.3288,-87.8293,1.315,9.58,1111122 
DISL,ioos:station:DISL:BSCA:1,2012-01-04T13:00:00Z,30.3288,-87.8293,1.325,9.67,1111122 
DISL,ioos:station:DISL:BSCA:1,2012-01-04T13:30:00Z,30.3288,-87.8293,1.345,9.46,1111122 
DISL,ioos:station:DISL:BSCA:1,2012-01-04T14:00:00Z,30.3288,-87.8293,1.369,9.65,1111122 
DISL,ioos:station:DISL:BSCA:1,2012-01-04T14:30:00Z,30.3288,-87.8293,1.387,9.86,1111122 
DISL,ioos:station:DISL:BSCA:1,2012-01-04T15:00:00Z,30.3288,-87.8293,1.416,9.72,1111122 
DISL,ioos:station:DISL:BSCA:1,2012-01-04T15:30:00Z,30.3288,-87.8293,1.449,9.88,1111122 
DISL,ioos:station:DISL:BSCA:1,2012-01-04T16:00:00Z,30.3288,-87.8293,1.484,9.96,1111122 
DISL,ioos:station:DISL:BSCA:1,2012-01-04T16:30:00Z,30.3288,-87.8293,1.519,9.91,1111122 
DISL,ioos:station:DISL:BSCA:1,2012-01-04T17:00:00Z,30.3288,-87.8293,1.551,9.93,1111122 
DISL,ioos:station:DISL:BSCA:1,2012-01-04T17:30:00Z,30.3288,-87.8293,1.577,9.81,1111122 
DISL,ioos:station:DISL:BSCA:1,2012-01-04T18:00:00Z,30.3288,-87.8293,1.603,9.78,1111122 
DISL,ioos:station:DISL:BSCA:1,2012-01-04T18:30:00Z,30.3288,-87.8293,1.618,10.22,1111122 
DISL,ioos:station:DISL:BSCA:1,2012-01-04T19:00:00Z,30.3288,-87.8293,1.642,10.24,1111122 
DISL,ioos:station:DISL:BSCA:1,2012-01-04T19:30:00Z,30.3288,-87.8293,1.67,10.22,1111122 
DISL,ioos:station:DISL:BSCA:1,2012-01-04T20:00:00Z,30.3288,-87.8293,1.703,10.33,1111122 
DISL,ioos:station:DISL:BSCA:1,2012-01-04T20:30:00Z,30.3288,-87.8293,1.733,10.31,1111122 
DISL,ioos:station:DISL:BSCA:1,2012-01-04T21:00:00Z,30.3288,-87.8293,1.761,10.51,1111122 
DISL,ioos:station:DISL:BSCA:1,2012-01-04T21:30:00Z,30.3288,-87.8293,1.798,10.38,1111122 
DISL,ioos:station:DISL:BSCA:1,2012-01-04T22:00:00Z,30.3288,-87.8293,1.829,10.56,1111122 
DISL,ioos:station:DISL:BSCA:1,2012-01-04T22:30:00Z,30.3288,-87.8293,1.848,10.63,1111122 
DISL,ioos:station:DISL:BSCA:1,2012-01-04T23:00:00Z,30.3288,-87.8293,1.884,10.74,1111122 
DISL,ioos:station:DISL:BSCA:1,2012-01-04T23:30:00Z,30.3288,-87.8293,1.902,10.63,1111122 
DISL,ioos:station:DISL:BSCA:1,2012-01-05T00:00:00Z,30.3288,-87.8293,1.934,10.84,1111122 
DISL,ioos:station:DISL:BSCA:1,2012-01-05T00:30:00Z,30.3288,-87.8293,1.946,10.7,1111122 
DISL,ioos:station:DISL:BSCA:1,2012-01-05T01:00:00Z,30.3288,-87.8293,1.963,10.59,1111122 
DISL,ioos:station:DISL:BSCA:1,2012-01-05T01:30:00Z,30.3288,-87.8293,1.966,10.58,1111122 
DISL,ioos:station:DISL:BSCA:1,2012-01-05T02:00:00Z,30.3288,-87.8293,1.969,10.61,1111122 
DISL,ioos:station:DISL:BSCA:1,2012-01-05T02:30:00Z,30.3288,-87.8293,1.96,10.49,1111122 
DISL,ioos:station:DISL:BSCA:1,2012-01-05T03:00:00Z,30.3288,-87.8293,1.929,10.82,1111122 
DISL,ioos:station:DISL:BSCA:1,2012-01-05T03:30:00Z,30.3288,-87.8293,1.894,10.67,1111122 
DISL,ioos:station:DISL:BSCA:1,2012-01-05T04:00:00Z,30.3288,-87.8293,1.89,10.59,1111122 
DISL,ioos:station:DISL:BSCA:1,2012-01-05T04:30:00Z,30.3288,-87.8293,1.857,10.69,1111122 
DISL,ioos:station:DISL:BSCA:1,2012-01-05T05:00:00Z,30.3288,-87.8293,1.828,10.64,1111122 
DISL,ioos:station:DISL:BSCA:1,2012-01-05T05:30:00Z,30.3288,-87.8293,1.793,10.48,1111122 
DISL,ioos:station:DISL:BSCA:1,2012-01-05T06:00:00Z,30.3288,-87.8293,1.753,10.23,1111122 
DISL,ioos:station:DISL:BSCA:1,2012-01-05T06:30:00Z,30.3288,-87.8293,1.712,9.96,1111122 
DISL,ioos:station:DISL:BSCA:1,2012-01-05T07:00:00Z,30.3288,-87.8293,1.669,10.07,1111122 
DISL,ioos:station:DISL:BSCA:1,2012-01-05T07:30:00Z,30.3288,-87.8293,1.64,10.31,1111122 
DISL,ioos:station:DISL:BSCA:1,2012-01-05T08:00:00Z,30.3288,-87.8293,1.609,10.52,1111122 
DISL,ioos:station:DISL:BSCA:1,2012-01-05T08:30:00Z,30.3288,-87.8293,1.576,10.33,1111122 
DISL,ioos:station:DISL:BSCA:1,2012-01-05T09:00:00Z,30.3288,-87.8293,1.549,10.3,1111122 
DISL,ioos:station:DISL:BSCA:1,2012-01-05T09:30:00Z,30.3288,-87.8293,1.514,10.13,1111122 
DISL,ioos:station:DISL:BSCA:1,2012-01-05T10:00:00Z,30.3288,-87.8293,1.482,9.96,1111122 
DISL,ioos:station:DISL:BSCA:1,2012-01-05T10:30:00Z,30.3288,-87.8293,1.461,9.74,1111122 
DISL,ioos:station:DISL:BSCA:1,2012-01-05T11:00:00Z,30.3288,-87.8293,1.434,9.83,1111122 
DISL,ioos:station:DISL:BSCA:1,2012-01-05T11:30:00Z,30.3288,-87.8293,1.415,9.56,1111122 
DISL,ioos:station:DISL:BSCA:1,2012-01-05T12:00:00Z,30.3288,-87.8293,1.399,9.55,1111122 
DISL,ioos:station:DISL:BSCA:1,2012-01-05T12:30:00Z,30.3288,-87.8293,1.385,9.69,1111122 
DISL,ioos:station:DISL:BSCA:1,2012-01-05T13:00:00Z,30.3288,-87.8293,1.376,9.7,1111122 
DISL,ioos:station:DISL:BSCA:1,2012-01-05T13:30:00Z,30.3288,-87.8293,1.378,9.66,1111122 
DISL,ioos:station:DISL:BSCA:1,2012-01-05T14:00:00Z,30.3288,-87.8293,1.382,9.1,1111122 
DISL,ioos:station:DISL:BSCA:1,2012-01-05T14:30:00Z,30.3288,-87.8293,1.394,9.27,1111122 
DISL,ioos:station:DISL:BSCA:1,2012-01-05T15:00:00Z,30.3288,-87.8293,1.416,9.64,1111122 
DISL,ioos:station:DISL:BSCA:1,2012-01-05T15:30:00Z,30.3288,-87.8293,1.439,9.85,1111122 
DISL,ioos:station:DISL:BSCA:1,2012-01-05T16:00:00Z,30.3288,-87.8293,1.458,9.89,1111122 
DISL,ioos:station:DISL:BSCA:1,2012-01-05T16:30:00Z,30.3288,-87.8293,1.485,9.8,1111122 
DISL,ioos:station:DISL:BSCA:1,2012-01-05T17:00:00Z,30.3288,-87.8293,1.517,9.93,1111122 
DISL,ioos:station:DISL:BSCA:1,2012-01-05T17:30:00Z,30.3288,-87.8293,1.543,10.07,1111122 
DISL,ioos:station:DISL:BSCA:1,2012-01-05T18:00:00Z,30.3288,-87.8293,1.568,10.04,1111122 
DISL,ioos:station:DISL:BSCA:1,2012-01-05T18:30:00Z,30.3288,-87.8293,1.593,10.09,1111122 
DISL,ioos:station:DISL:BSCA:1,2012-01-05T19:00:00Z,30.3288,-87.8293,1.621,10.04,1111122 
DISL,ioos:station:DISL:BSCA:1,2012-01-05T19:30:00Z,30.3288,-87.8293,1.65,9.95,1111122 
DISL,ioos:station:DISL:BSCA:1,2012-01-05T20:00:00Z,30.3288,-87.8293,1.681,10.16,1111122 
DISL,ioos:station:DISL:BSCA:1,2012-01-05T20:30:00Z,30.3288,-87.8293,1.716,10.46,1111122 
DISL,ioos:station:DISL:BSCA:1,2012-01-05T21:00:00Z,30.3288,-87.8293,1.756,10.38,1111122 
DISL,ioos:station:DISL:BSCA:1,2012-01-05T21:30:00Z,30.3288,-87.8293,1.791,10.32,1111122 
DISL,ioos:station:DISL:BSCA:1,2012-01-05T22:00:00Z,30.3288,-87.8293,1.825,10.42,1111122 
DISL,ioos:station:DISL:BSCA:1,2012-01-05T22:30:00Z,30.3288,-87.8293,1.858,10.56,1111122 
DISL,ioos:station:DISL:BSCA:1,2012-01-05T23:00:00Z,30.3288,-87.8293,1.878,10.63,1111122 
DISL,ioos:station:DISL:BSCA:1,2012-01-05T23:30:00Z,30.3288,-87.8293,1.903,10.67,1111122 
DISL,ioos:station:DISL:BSCA:1,2012-01-06T00:00:00Z,30.3288,-87.8293,1.928,10.82,1111122 
DISL,ioos:station:DISL:BSCA:1,2012-01-06T00:30:00Z,30.3288,-87.8293,1.943,11.51,1111122 
DISL,ioos:station:DISL:BSCA:1,2012-01-06T01:00:00Z,30.3288,-87.8293,1.969,11.32,1111122 
DISL,ioos:station:DISL:BSCA:1,2012-01-06T01:30:00Z,30.3288,-87.8293,1.981,11.25,1111122 
DISL,ioos:station:DISL:BSCA:1,2012-01-06T02:00:00Z,30.3288,-87.8293,1.993,11.62,1111122 
DISL,ioos:station:DISL:BSCA:1,2012-01-06T02:30:00Z,30.3288,-87.8293,1.998,11.61,1111122 
DISL,ioos:station:DISL:BSCA:1,2012-01-06T03:00:00Z,30.3288,-87.8293,1.989,11.54,1111122 
DISL,ioos:station:DISL:BSCA:1,2012-01-06T03:30:00Z,30.3288,-87.8293,1.971,11.74,1111122 
DISL,ioos:station:DISL:BSCA:1,2012-01-06T04:00:00Z,30.3288,-87.8293,1.95,11.61,1111122 
DISL,ioos:station:DISL:BSCA:1,2012-01-06T04:30:00Z,30.3288,-87.8293,1.924,10.26,1111122 
DISL,ioos:station:DISL:BSCA:1,2012-01-06T05:00:00Z,30.3288,-87.8293,1.889,9.98,1111122 
DISL,ioos:station:DISL:BSCA:1,2012-01-06T05:30:00Z,30.3288,-87.8293,1.836,10.01,1111122 
DISL,ioos:station:DISL:BSCA:1,2012-01-06T06:00:00Z,30.3288,-87.8293,1.815,10.2,1111122 
DISL,ioos:station:DISL:BSCA:1,2012-01-06T06:30:00Z,30.3288,-87.8293,1.774,10.12,1111122 
DISL,ioos:station:DISL:BSCA:1,2012-01-06T07:00:00Z,30.3288,-87.8293,1.742,10.48,1111122 
DISL,ioos:station:DISL:BSCA:1,2012-01-06T07:30:00Z,30.3288,-87.8293,1.71,10.63,1111122 
DISL,ioos:station:DISL:BSCA:1,2012-01-06T08:00:00Z,30.3288,-87.8293,1.678,10.09,1111122 
DISL,ioos:station:DISL:BSCA:1,2012-01-06T08:30:00Z,30.3288,-87.8293,1.648,9.99,1111122 
DISL,ioos:station:DISL:BSCA:1,2012-01-06T09:00:00Z,30.3288,-87.8293,1.612,10.51,1111122 
DISL,ioos:station:DISL:BSCA:1,2012-01-06T09:30:00Z,30.3288,-87.8293,1.582,10.75,1111122 
DISL,ioos:station:DISL:BSCA:1,2012-01-06T10:00:00Z,30.3288,-87.8293,1.549,11.1,1111122 
DISL,ioos:station:DISL:BSCA:1,2012-01-06T10:30:00Z,30.3288,-87.8293,1.518,11.38,1111122 
DISL,ioos:station:DISL:BSCA:1,2012-01-06T11:00:00Z,30.3288,-87.8293,1.491,11.4,1111122 
DISL,ioos:station:DISL:BSCA:1,2012-01-06T11:30:00Z,30.3288,-87.8293,1.469,11.52,1111122 
DISL,ioos:station:DISL:BSCA:1,2012-01-06T12:00:00Z,30.3288,-87.8293,1.45,10.81,1111122 
DISL,ioos:station:DISL:BSCA:1,2012-01-06T12:30:00Z,30.3288,-87.8293,1.439,9.73,1111122 
DISL,ioos:station:DISL:BSCA:1,2012-01-06T13:00:00Z,30.3288,-87.8293,1.426,9.93,1111122 
DISL,ioos:station:DISL:BSCA:1,2012-01-06T13:30:00Z,30.3288,-87.8293,1.43,11.33,1111122 
DISL,ioos:station:DISL:BSCA:1,2012-01-06T14:00:00Z,30.3288,-87.8293,1.429,10.58,1111122 
DISL,ioos:station:DISL:BSCA:1,2012-01-06T14:30:00Z,30.3288,-87.8293,1.44,10.29,1111122 
DISL,ioos:station:DISL:BSCA:1,2012-01-06T15:00:00Z,30.3288,-87.8293,1.456,10.49,1111122 
DISL,ioos:station:DISL:BSCA:1,2012-01-06T15:30:00Z,30.3288,-87.8293,1.484,10.51,1111122 
DISL,ioos:station:DISL:BSCA:1,2012-01-06T16:00:00Z,30.3288,-87.8293,1.516,10.95,1111122 
DISL,ioos:station:DISL:BSCA:1,2012-01-06T16:30:00Z,30.3288,-87.8293,1.545,11.1,1111122 
DISL,ioos:station:DISL:BSCA:1,2012-01-06T17:00:00Z,30.3288,-87.8293,1.58,11.12,1111122 
DISL,ioos:station:DISL:BSCA:1,2012-01-06T17:30:00Z,30.3288,-87.8293,1.61,10.26,1111122 
DISL,ioos:station:DISL:BSCA:1,2012-01-06T18:00:00Z,30.3288,-87.8293,1.635,10.66,1111122 
DISL,ioos:station:DISL:BSCA:1,2012-01-06T18:30:00Z,30.3288,-87.8293,1.662,10.54,1111122 
DISL,ioos:station:DISL:BSCA:1,2012-01-06T19:00:00Z,30.3288,-87.8293,1.686,10.13,1111122 
DISL,ioos:station:DISL:BSCA:1,2012-01-06T19:30:00Z,30.3288,-87.8293,1.716,11.32,1111122 
DISL,ioos:station:DISL:BSCA:1,2012-01-06T20:00:00Z,30.3288,-87.8293,1.743,11.11,1111122 
DISL,ioos:station:DISL:BSCA:1,2012-01-06T20:30:00Z,30.3288,-87.8293,1.774,10.89,1111122 
DISL,ioos:station:DISL:BSCA:1,2012-01-06T21:00:00Z,30.3288,-87.8293,1.808,10.85,1111122 